Location: Unspecified
(48.7670°N, 0.0000°E)
Time: 07:29:24
(UTC+00:00)

Altair - Pass Details

Date: 01 October 2020
Orbit: 1502 x 1682 km, 47.2° (Epoch: 20 October)

Event Time Altitude Azimuth Distance (km) Brightness Sun altitude
Rises 19:15:59 0° 290° (WNW) 4,937 11.9 -16.8°
Reaches altitude 10° 19:19:38 10° 281° (W) 3,949 11.0 -17.4°
Maximum altitude 19:28:01 31° 225° (SW) 2,633 9.0 -18.8°
Drops below altitude 10° 19:36:18 10° 168° (SSE) 3,886 9.3 -20.1°
Enters shadow 19:38:37 - 162° (SSE) 4,498 9.6 -20.4°
